Timeline UpdatesTrip UpdatesNews PostsPvt PostsTravel TipsAdmin PostsConv PostsFollowed PostsChat RequestsBlog PostsPNR Posts

Disclaimer
Search
 
 
Mon Apr 21, 2014 13:01:04 ISTHomeTrainsΣChainsAtlasPNRForumGalleryNewsFAQTripsMembersLoginFeedback
No Recent News for this Train
Other Trains in the News **new
Latest...
⇐ Return Journey: Train# 51673

51674/Satna Itarsi Passenger (UnReserved)

Sep 25 2013 (7:52PM)
Change Departure Station:
Change Arrival Station:
Post a Train Travel TipPost a Train Travel Tip **new
Post a Comment/Question/Picture/VideoPost a Comment/Question/Picture/Video
Pantry/Catering
???
RSA - Rake Sharing
Rake Sharing with Katni Itarsi Passenger (UnReserved)/51672; Ref: http://indiarailinfo.com/blog/post/801431
Rake/Coach Composition
Loco
News    PNR    Forum    Time-Table    Availability    Fare Chart    Map    Arr/Dep History    Trips    Gallery    ΣChains    X/O    Timeline    
Travel Time: 3h 0m    9 halts    Distance: 91 km    Avg Speed: 30 km/hr
Type: Passenger
Zone: WCR/West Central
Departs @ 15:10 (Avg 1h 39m late)
Platform# 2
SMTWTFS
Katni Junction/KTE 
Arrives @ 18:10 (Avg 1h 1m late)
Platform# 1
SMTWTFS
Jabalpur Junction/JBP 

9 halts. 10 intermediate Stations between Katni Junction and Jabalpur Junction

Show ALL intermediate Stations  Show Old Time-Table

#CodeStation NameX/OArrivesAvgDepartsAvgHaltPFDay#KmSpeedElevZoneAddress
1STASatna Junction (3)  -13:30+1:2531-98.385322mWCRSatna, Madhya Pradesh
2UHRUnchhera (2)  13:45+1:3213:46+1:331m--1-77.266331mWCRUnchhera, Madhya Pradesh
3MYRMaihar (3)  13:59+1:3314:00+1:371m--1-62.968353mWCRMaihar Railway Station, Madhya Pradesh
4UDRAmdara (2)  14:23+1:3714:24+1:381m--1-36.973376mWCRNational Highway 34, Madhya Pradesh
5JKEJukehi (3)X  14:40+1:3914:41+1:411m--1-17.443402mWCRJukehi, Madhya Pradesh
6KTE»Katni Junction (6)»  15:05+1:3815:10+1:395m210.031387mWCRKatni, Madhya Pradesh
7MDRRMadhavnagar Road (2)XO  15:20+1:4015:21+1:401m--15.137398mWCRMadhavnagar, Madhya Pradesh
8NWRNiwar (2)X  15:34+1:4015:35+1:431m--113.252412mWCRPipraundh, Madhya Pradesh
9SNRRSansarpur (2)X  15:44+1:2715:45+1:271m--120.917436mWCRNational Highway 7, Madhya Pradesh
10SBDSleemanabad Road (2)  16:09+1:2616:10+1:281m--127.863434mWCRSleemanabad, Madhya Pradesh
11DDCEDundi (2)X  16:19+1:2816:20+1:311m--137.339415mWCRDundi, Madhya Pradesh
12SHRSihora Road (2)X  16:43+1:2016:45+1:212m--152.3111388mWCRJabalpur, Madhya Pradesh
13GSPRGosalpur (2)X  16:51+1:2616:52+1:281m--163.453396mWCRJabalpur, Madhya Pradesh
14DOEDeori (2)X  17:04+1:2617:05+1:271m--173.916392mWCRJabalpur, Madhya Pradesh
15ADTLAdhartal (2)XO  17:38+1:0817:40+1:152m--182.716393mWCRJabalpur, Madhya Pradesh
16JBP•Jabalpur Junction (7)•X  18:10+1:0118:20+1:0710m1190.735416mWCRJabalpur, Madhya Pradesh
17MMLMadan Mahal (3)  18:26+1:0718:28+1:082m1194.288428mWCRJabalpur, Madhya Pradesh
18BRGTBheraghat (2)X  18:37+1:1218:39+1:122m--1107.379389mWCRBheraghat, Madhya Pradesh
19BHTNBhitoni (2)  18:49+1:1418:51+1:162m--1120.469377mWCRJabalpur, Madhya Pradesh
20BMRBikrampur (2)  19:01+1:1719:03+1:212m--1132.059353mWCRBikrampur Dist Narsingpur., Madhya Pradesh
21SRIDShridham (3)X  19:15+1:2019:17+1:232m31143.971373mWCRShridham, Madhya Pradesh
22KKBKarak Bel (2)X  19:30+1:2519:32+1:252m--1159.238375mWCRKarak Bel, Madhya Pradesh
23BELDBelkhera (2)X  19:39+1:2419:41+1:262m--1163.633367mWCRState Highway 22, Madhya Pradesh
24GPCGhatpindrai (2)X  19:51+1:2519:53+1:272m--1169.135366mWCRGhatpindra, Madhya Pradesh
25NUNarsinghpur (2)X  20:03+1:2620:05+1:272m21174.961365mWCRNarsimhapur, Madhya Pradesh
26KYKareli (2)X  20:21+1:2420:23+1:262m21191.362361mWCRKareli, Madhya Pradesh
27KFYKarapgaon (2)  20:31+1:2720:33+1:272m--1199.5101364mWCRNational Highway 26, Madhya Pradesh
28BNEBohani (2)X  20:37+1:2720:39+1:332m--1206.360361mWCRNarsinghpur, Madhya Pradesh
29GARGadarwara (2)X  20:52+1:3220:54+1:342m21219.276352mWCRNarsinghpur, Madhya Pradesh
30SCKRSalichauka Road (2)X  21:05+1:3521:07+1:452m--1233.161355mWCRGadarwara, Madhya Pradesh
31JHTJunehta (2)X  21:17+1:4221:19+1:422m--1243.343353mWCRState Highway 22, Madhya Pradesh
32BKHBankhedi (2)XO  21:28+1:4021:30+1:502m--1249.776351mWCRBankheri, Madhya Pradesh
33PPIPipariya (3)O  21:45+1:5121:47+2:012m21268.665338mWCRPiparia, Madhya Pradesh
34SXFSobhapur (2)XO  21:55+2:0121:57+2:012m--1277.354338mWCRState Highway 22, Madhya Pradesh
35SGPSohagpur (2)  22:07+2:0122:09+2:022m--1286.350340mWCRSohagpur, Madhya Pradesh
36GMDGuramkhedi (2)  22:21+1:5922:22+2:061m--1296.478337mWCRSohagpur, Madhya Pradesh
37BGTABagra Tawa (2)  22:32+2:0722:33+2:151m--1309.434338mWCRBagra Tawa, Madhya Pradesh
38SQLSontalai (2)XO  22:45+2:1322:46+2:261m--1316.368329mWCRItarsi, Madhya Pradesh
39GROGurra (2)  22:54+2:2822:55+3:051m--1325.332327mWCRItarsi, Madhya Pradesh
40ETItarsi Junction (7)  23:15+1:55---1335.8-329mWCRItarsi 461111, Madhya Pradesh
Scroll to Top
Scroll to Bottom